QPF
0.01 0.02 0.01 0.02 0.03 0.03 0.03 0.03 0.03 0.04 0.03 0.03 0.02 0.03 0.04 0.03 0.02 0.01 0.01 0.01 0.01 0.02 0.02 0.02 0.03 0.04 0.05 0.05 0.05 0.05 0.05 0.05 0.04 0.03 0.03 0.03 0.04 0.05
0.03 0.03 0.02 0.02 0.03 0.03 0.03 0.04 0.04 0.04 0.03 0.02 0.01 0.02 0.02 0.02 0.02 0.01 0.01 0.01 0.01 0.01 0.02 0.02 0.02 0.03 0.03 0.04 0.04 0.03 0.03 0.03 0.03 0.03 0.03 0.03 0.03 0.04
0.04 0.04 0.03 0.03 0.03 0.02 0.02 0.02 0.04 0.05 0.05 0.03 0.03 0.03 0.02 0.02 0.01 0.01 0.01 0.01 0.02 0.02 0.02 0.02 0.02 0.02 0.03 0.03 0.03 0.03 0.03 0.03 0.03 0.02 0.03 0.03 0.04 0.04
0.04 0.04 0.04 0.04 0.03 0.02 0.02 0.02 0.02 0.02 0.02 0.02 0.03 0.03 0.03 0.02 0.02 0.02 0.02 0.02 0.02 0.03 0.02 0.02 0.02 0.02 0.03 0.03 0.03 0.03 0.03 0.03 0.03 0.02 0.03 0.03 0.04 0.05
0.03 0.03 0.04 0.04 0.04 0.02 0.02 0.02 0.02 0.02 0.02 0.02 0.03 0.03 0.02 0.02 0.02 0.02 0.02 0.03 0.02 0.02 0.03 0.02 0.02 0.02 0.02 0.02 0.03 0.03 0.02 0.02 0.02 0.02 0.02 0.02 0.03 0.05
0.02 0.03 0.03 0.02 0.02 0.02 0.02 0.01 0.01 0.02 0.03 0.03 0.03 0.03 0.02 0.02 0.01 0.02 0.02 0.01 0.02 0.01 0.02 0.02 0.02 0.02 0.02 0.02 0.01 0.02 0.01 0.02 0.02 0.02 0.02 0.02 0.01 0.02
0.02 0.02 0.03 0.02 0.01 0.01 0.01 0.02 0.02 0.02 0.03 0.02 0.02 0.02 0.03 0.03 0.02 0.01 0.01 0.01 0.01 0.01 0.01 0.01 0.01 0.01 0.01 0.01 0.01 0.01 0.01 0.01 0.01 0.01 0.01 0.01 0.00 0.00
0.02 0.02 0.02 0.02 0.02 0.02 0.02 0.02 0.02 0.03 0.02 0.02 0.02 0.02 0.02 0.03 0.02 0.01 0.01 0.01 0.01 0.01 0.00 0.00 0.01 0.01 0.01 0.00 0.00 0.00 0.00 0.00 0.00 0.00 0.00 0.00 0.00 0.00
0.01 0.01 0.01 0.02 0.03 0.02 0.02 0.02 0.02 0.03 0.02 0.02 0.03 0.03 0.02 0.03 0.03 0.01 0.01 0.01 0.01 0.01 0.01 0.01 0.01 0.01 0.01 0.01 0.00 0.00 0.00 0.00 0.00 0.00 0.00 0.00 0.00 0.00
0.01 0.01 0.01 0.01 0.02 0.02 0.01 0.01 0.01 0.01 0.01 0.02 0.02 0.02 0.02 0.02 0.03 0.03 0.02 0.02 0.01 0.01 0.01 0.01 0.00 0.01 0.01 0.01 0.01 0.00 0.00 0.00 0.00 0.00 0.00 0.00 0.00 0.00
0.02 0.01 0.01 0.02 0.02 0.03 0.01 0.01 0.01 0.00 0.01 0.01 0.02 0.02 0.03 0.03 0.03 0.02 0.01 0.01 0.01 0.01 0.01 0.01 0.01 0.01 0.01 0.01 0.01 0.00 0.00 0.00 0.00 0.00 0.00 0.00 0.00 0.00
0.01 0.01 0.01 0.03 0.03 0.03 0.01 0.01 0.01 0.01 0.00 0.01 0.01 0.02 0.03 0.03 0.02 0.01 0.00 0.00 0.01 0.01 0.01 0.02 0.02 0.01 0.01 0.00 0.00 0.00 0.00 0.00 0.00 0.00 0.00 0.00 0.00 0.00
0.01 0.01 0.01 0.03 0.03 0.02 0.02 0.01 0.01 0.01 0.01 0.01 0.01 0.01 0.02 0.02 0.01 0.00 0.00 0.00 0.01 0.00 0.01 0.01 0.02 0.02 0.01 0.00 0.00 0.00 0.00 0.00 0.00 0.00 0.00 0.00 0.00 0.00
0.01 0.01 0.01 0.02 0.02 0.01 0.01 0.01 0.01 0.01 0.02 0.01 0.01 0.01 0.01 0.01 0.01 0.01 0.01 0.01 0.01 0.01 0.01 0.02 0.02 0.02 0.01 0.01 0.00 0.00 0.00 0.00 0.00 0.00 0.00 0.00 0.00 0.00
0.01 0.01 0.02 0.02 0.02 0.02 0.01 0.01 0.01 0.01 0.01 0.01 0.01 0.01 0.01 0.01 0.01 0.00 0.01 0.01 0.01 0.01 0.02 0.02 0.02 0.03 0.02 0.01 0.01 0.00 0.00 0.00 0.00 0.00 0.00 0.00 0.00 0.00
0.01 0.01 0.01 0.01 0.01 0.02 0.01 0.02 0.02 0.02 0.01 0.01 0.01 0.00 0.00 0.01 0.01 0.00 0.00 0.01 0.01 0.01 0.01 0.01 0.02 0.02 0.01 0.00 0.00 0.00 0.00 0.00 0.00 0.00 0.00 0.00 0.00 0.00
0.01 0.00 0.00 0.00 0.01 0.01 0.01 0.01 0.02 0.01 0.01 0.01 0.00 0.00 0.00 0.01 0.00 0.01 0.01 0.01 0.01 0.01 0.01 0.01 0.01 0.01 0.00 0.00 0.00 0.00 0.00 0.00 0.00 0.00 0.00 0.00 0.00 0.00
0.01 0.00 0.00 0.00 0.00 0.01 0.01 0.01 0.01 0.00 0.00 0.00 0.00 0.00 0.00 0.00 0.00 0.01 0.01 0.01 0.01 0.01 0.01 0.01 0.00 0.00 0.00 0.00 0.00 0.00 0.00 0.00 0.00 0.00 0.00 0.00 0.00 0.00
0.00 0.00 0.00 0.00 0.00 0.00 0.00 0.00 0.00 0.00 0.00 0.00 0.00 0.00 0.00 0.00 0.00 0.01 0.01 0.01 0.01 0.01 0.00 0.00 0.00 0.00 0.00 0.00 0.00 0.00 0.00 0.00 0.00 0.00 0.00 0.00 0.00 0.00
0.00 0.00 0.00 0.00 0.00 0.00 0.00 0.00 0.00 0.00 0.00 0.00 0.00 0.00 0.00 0.00 0.00 0.00 0.00 0.00 0.00 0.00 0.00 0.00 0.00 0.00 0.00 0.00 0.00 0.00 0.00 0.00 0.00 0.00 0.00 0.00 0.00 0.00
0.00 0.00 0.00 0.00 0.00 0.00 0.00 0.00 0.00 0.00 0.00 0.00 0.00 0.00 0.00 0.00 0.00 0.00 0.00 0.00 0.00 0.00 0.00 0.00 0.00 0.00 0.00 0.00 0.00 0.00 0.00 0.00 0.00 0.00 0.00 0.00 0.00 0.00
0.00 0.00 0.00 0.00 0.00 0.00 0.00 0.00 0.00 0.00 0.00 0.00 0.00 0.00 0.00 0.00 0.00 0.00 0.01 0.01 0.01 0.01 0.01 0.01 0.01 0.01 0.01 0.01 0.01 0.00 0.00 0.00 0.00 0.00 0.00 0.00 0.00 0.00
0.00 0.00 0.00 0.00 0.00 0.00 0.00 0.00 0.00 0.00 0.01 0.01 0.01 0.01 0.01 0.01 0.02 0.02 0.02 0.02 0.02 0.02 0.01 0.01 0.01 0.02 0.02 0.02 0.01 0.01 0.01 0.01 0.01 0.01 0.01 0.01 0.00 0.00
MSLP
1019.14 1018.82 1018.52 1018.25 1018.03 1017.88 1017.81 1017.82 1017.93 1018.13 1018.41 1018.75 1019.11 1019.45 1019.72 1019.89 1019.93 1019.81 1019.55 1019.14 1018.63 1018.04 1017.41 1016.78 1016.19 1015.65 1015.19 1014.83 1014.59 1014.47 1014.51 1014.71 1015.08 1015.63 1016.36 1017.24 1018.23 1019.29
1019.02 1018.67 1018.33 1018.02 1017.76 1017.56 1017.44 1017.43 1017.53 1017.73 1018.04 1018.42 1018.85 1019.26 1019.62 1019.89 1020.02 1020.00 1019.84 1019.53 1019.10 1018.60 1018.04 1017.48 1016.94 1016.45 1016.04 1015.71 1015.49 1015.40 1015.46 1015.66 1016.04 1016.57 1017.26 1018.08 1019.00 1019.96
1018.88 1018.51 1018.14 1017.79 1017.49 1017.24 1017.09 1017.05 1017.13 1017.34 1017.67 1018.09 1018.57 1019.06 1019.51 1019.87 1020.11 1020.21 1020.15 1019.96 1019.65 1019.25 1018.80 1018.34 1017.88 1017.47 1017.12 1016.85 1016.68 1016.62 1016.69 1016.89 1017.24 1017.73 1018.35 1019.08 1019.87 1020.70
1018.80 1018.41 1018.02 1017.64 1017.29 1017.01 1016.82 1016.75 1016.81 1017.01 1017.34 1017.79 1018.31 1018.85 1019.37 1019.82 1020.16 1020.36 1020.43 1020.36 1020.17 1019.89 1019.56 1019.21 1018.87 1018.55 1018.28 1018.08 1017.97 1017.94 1018.03 1018.22 1018.54 1018.96 1019.49 1020.09 1020.73 1021.39
1018.80 1018.40 1018.00 1017.59 1017.22 1016.90 1016.67 1016.55 1016.58 1016.75 1017.07 1017.51 1018.04 1018.62 1019.18 1019.69 1020.11 1020.41 1020.58 1020.62 1020.56 1020.41 1020.20 1019.97 1019.74 1019.53 1019.36 1019.24 1019.18 1019.20 1019.29 1019.47 1019.74 1020.09 1020.51 1020.98 1021.47 1021.95
1018.84 1018.45 1018.04 1017.63 1017.23 1016.87 1016.60 1016.44 1016.42 1016.55 1016.84 1017.25 1017.77 1018.34 1018.92 1019.46 1019.93 1020.30 1020.55 1020.69 1020.74 1020.70 1020.62 1020.51 1020.39 1020.28 1020.20 1020.16 1020.16 1020.21 1020.31 1020.48 1020.70 1020.97 1021.29 1021.63 1021.98 1022.31
1018.87 1018.49 1018.09 1017.67 1017.25 1016.88 1016.57 1016.37 1016.30 1016.38 1016.61 1016.97 1017.45 1018.00 1018.57 1019.11 1019.61 1020.02 1020.33 1020.55 1020.68 1020.74 1020.76 1020.75 1020.73 1020.71 1020.71 1020.73 1020.78 1020.85 1020.97 1021.11 1021.29 1021.50 1021.73 1021.97 1022.21 1022.42
1018.82 1018.45 1018.05 1017.63 1017.21 1016.82 1016.49 1016.25 1016.14 1016.17 1016.35 1016.67 1017.09 1017.60 1018.14 1018.68 1019.17 1019.60 1019.95 1020.22 1020.41 1020.54 1020.63 1020.70 1020.75 1020.80 1020.86 1020.92 1021.00 1021.09 1021.21 1021.33 1021.48 1021.64 1021.80 1021.97 1022.12 1022.25
1018.62 1018.27 1017.87 1017.46 1017.04 1016.64 1016.30 1016.05 1015.91 1015.91 1016.05 1016.32 1016.71 1017.18 1017.69 1018.21 1018.69 1019.12 1019.49 1019.78 1020.01 1020.19 1020.32 1020.43 1020.52 1020.61 1020.69 1020.77 1020.86 1020.95 1021.05 1021.16 1021.27 1021.40 1021.52 1021.64 1021.75 1021.83
1018.29 1017.93 1017.54 1017.13 1016.72 1016.33 1016.00 1015.75 1015.61 1015.60 1015.72 1015.98 1016.34 1016.79 1017.28 1017.77 1018.25 1018.68 1019.05 1019.35 1019.59 1019.78 1019.92 1020.04 1020.14 1020.23 1020.31 1020.38 1020.45 1020.53 1020.60 1020.68 1020.76 1020.85 1020.95 1021.04 1021.12 1021.19
1017.87 1017.49 1017.10 1016.70 1016.31 1015.94 1015.63 1015.40 1015.28 1015.28 1015.42 1015.68 1016.04 1016.48 1016.96 1017.45 1017.92 1018.34 1018.70 1019.00 1019.23 1019.41 1019.54 1019.65 1019.72 1019.78 1019.83 1019.88 1019.91 1019.94 1019.98 1020.02 1020.07 1020.13 1020.20 1020.27 1020.34 1020.39
1017.47 1017.08 1016.68 1016.28 1015.90 1015.56 1015.27 1015.08 1014.99 1015.03 1015.19 1015.47 1015.85 1016.30 1016.79 1017.28 1017.74 1018.15 1018.50 1018.78 1018.99 1019.15 1019.25 1019.32 1019.36 1019.37 1019.37 1019.37 1019.35 1019.33 1019.32 1019.32 1019.32 1019.35 1019.38 1019.43 1019.48 1019.52
1017.18 1016.77 1016.37 1015.97 1015.61 1015.29 1015.04 1014.88 1014.83 1014.90 1015.10 1015.40 1015.80 1016.27 1016.76 1017.24 1017.70 1018.10 1018.43 1018.69 1018.87 1018.99 1019.05 1019.08 1019.07 1019.03 1018.98 1018.92 1018.85 1018.78 1018.72 1018.66 1018.62 1018.60 1018.60 1018.61 1018.63 1018.64
1017.08 1016.67 1016.26 1015.87 1015.51 1015.20 1014.98 1014.84 1014.82 1014.92 1015.14 1015.47 1015.88 1016.34 1016.83 1017.30 1017.74 1018.12 1018.42 1018.65 1018.80 1018.88 1018.91 1018.89 1018.84 1018.76 1018.67 1018.56 1018.44 1018.33 1018.21 1018.11 1018.02 1017.95 1017.90 1017.86 1017.83 1017.80
1017.17 1016.76 1016.36 1015.97 1015.62 1015.33 1015.11 1014.99 1014.98 1015.09 1015.31 1015.63 1016.03 1016.47 1016.93 1017.38 1017.78 1018.12 1018.39 1018.58 1018.69 1018.74 1018.74 1018.69 1018.61 1018.51 1018.38 1018.25 1018.10 1017.95 1017.80 1017.66 1017.53 1017.40 1017.30 1017.20 1017.11 1017.02
1017.39 1017.01 1016.62 1016.25 1015.90 1015.61 1015.39 1015.27 1015.25 1015.34 1015.53 1015.82 1016.18 1016.58 1016.99 1017.38 1017.73 1018.02 1018.24 1018.39 1018.47 1018.49 1018.47 1018.41 1018.32 1018.21 1018.08 1017.94 1017.79 1017.62 1017.45 1017.28 1017.10 1016.94 1016.77 1016.62 1016.46 1016.31
1017.63 1017.29 1016.93 1016.58 1016.25 1015.96 1015.73 1015.59 1015.55 1015.60 1015.75 1015.99 1016.28 1016.61 1016.95 1017.27 1017.54 1017.77 1017.94 1018.04 1018.09 1018.09 1018.06 1018.00 1017.92 1017.82 1017.71 1017.58 1017.44 1017.28 1017.10 1016.91 1016.71 1016.50 1016.29 1016.07 1015.85 1015.63
1017.75 1017.47 1017.16 1016.84 1016.53 1016.25 1016.02 1015.86 1015.79 1015.80 1015.90 1016.06 1016.28 1016.53 1016.78 1017.01 1017.21 1017.37 1017.48 1017.54 1017.56 1017.55 1017.52 1017.47 1017.41 1017.34 1017.26 1017.15 1017.03 1016.88 1016.70 1016.50 1016.28 1016.04 1015.78 1015.51 1015.24 1014.96
1017.67 1017.45 1017.20 1016.92 1016.64 1016.38 1016.16 1016.00 1015.91 1015.88 1015.93 1016.03 1016.17 1016.33 1016.50 1016.65 1016.77 1016.86 1016.92 1016.95 1016.95 1016.94 1016.91 1016.88 1016.85 1016.80 1016.74 1016.66 1016.56 1016.41 1016.24 1016.03 1015.79 1015.52 1015.23 1014.92 1014.59 1014.27
1017.34 1017.18 1016.99 1016.77 1016.53 1016.31 1016.12 1015.97 1015.87 1015.83 1015.84 1015.89 1015.97 1016.07 1016.16 1016.24 1016.30 1016.34 1016.36 1016.35 1016.34 1016.33 1016.31 1016.30 1016.28 1016.25 1016.21 1016.15 1016.04 1015.90 1015.72 1015.49 1015.23 1014.93 1014.61 1014.26 1013.90 1013.53
1016.79 1016.69 1016.55 1016.39 1016.21 1016.04 1015.88 1015.77 1015.69 1015.65 1015.65 1015.67 1015.72 1015.77 1015.81 1015.85 1015.86 1015.86 1015.85 1015.83 1015.81 1015.80 1015.79 1015.78 1015.77 1015.75 1015.71 1015.64 1015.52 1015.36 1015.16 1014.90 1014.61 1014.28 1013.92 1013.54 1013.15 1012.76
1016.09 1016.03 1015.94 1015.82 1015.70 1015.59 1015.49 1015.42 1015.38 1015.36 1015.37 1015.40 1015.43 1015.46 1015.48 1015.48 1015.48 1015.46 1015.43 1015.41 1015.38 1015.37 1015.36 1015.35 1015.34 1015.31 1015.25 1015.15 1015.00 1014.80 1014.56 1014.26 1013.93 1013.56 1013.17 1012.77 1012.36 1011.94
1015.33 1015.28 1015.22 1015.15 1015.08 1015.02 1014.98 1014.96 1014.97 1014.99 1015.02 1015.06 1015.10 1015.13 1015.14 1015.13 1015.12 1015.09 1015.07 1015.04 1015.02 1015.01 1015.00 1014.98 1014.95 1014.89 1014.79 1014.65 1014.46 1014.21 1013.91 1013.57 1013.20 1012.80 1012.38 1011.95 1011.53 1011.10
Thickness
5593 5595 5597 5598 5599 5600 5601 5601 5601 5601 5600 5600 5600 5601 5602 5604 5606 5608 5609 5611 5613 5616 5617 5619 5621 5623 5623 5624 5624 5624 5623 5622 5621 5619 5618 5617 5615 5613
5586 5588 5590 5591 5592 5593 5594 5595 5596 5596 5595 5594 5594 5594 5595 5597 5598 5600 5602 5604 5605 5607 5609 5611 5612 5614 5615 5615 5615 5614 5614 5613 5612 5611 5610 5609 5607 5606
5579 5581 5583 5584 5586 5587 5588 5588 5589 5590 5589 5588 5587 5587 5588 5590 5591 5593 5594 5596 5598 5599 5601 5602 5604 5605 5606 5606 5606 5606 5606 5604 5604 5603 5602 5601 5600 5598
5572 5575 5576 5578 5579 5580 5581 5582 5582 5583 5584 5583 5582 5581 5582 5583 5584 5586 5587 5589 5590 5591 5593 5594 5595 5596 5597 5598 5598 5598 5597 5597 5596 5595 5594 5593 5592 5590
5566 5568 5570 5572 5573 5574 5575 5575 5576 5577 5578 5578 5576 5575 5575 5576 5577 5579 5580 5582 5583 5584 5586 5587 5587 5588 5589 5590 5590 5590 5590 5590 5589 5588 5587 5586 5585 5583
5560 5563 5565 5567 5568 5569 5570 5570 5570 5571 5571 5572 5571 5570 5569 5570 5571 5572 5573 5574 5576 5578 5579 5580 5581 5582 5583 5583 5583 5584 5584 5583 5582 5581 5581 5580 5579 5578
5555 5557 5559 5562 5563 5564 5565 5565 5565 5566 5566 5566 5565 5565 5565 5565 5566 5566 5567 5568 5569 5570 5572 5574 5575 5576 5577 5577 5578 5578 5578 5577 5577 5576 5576 5575 5574 5573
5549 5552 5554 5556 5558 5559 5560 5561 5562 5562 5562 5562 5562 5562 5561 5561 5561 5562 5562 5564 5565 5566 5567 5570 5570 5572 5573 5573 5574 5574 5573 5573 5573 5572 5572 5571 5570 5569
5545 5547 5550 5552 5553 5555 5556 5557 5558 5558 5559 5560 5559 5559 5559 5559 5559 5559 5559 5560 5562 5563 5563 5566 5567 5568 5570 5571 5571 5571 5571 5571 5570 5570 5569 5568 5568 5567
5542 5543 5545 5547 5549 5550 5551 5553 5554 5555 5556 5557 5557 5557 5557 5557 5556 5557 5557 5557 5558 5559 5559 5562 5564 5565 5568 5569 5570 5570 5569 5569 5569 5568 5568 5567 5567 5566
5540 5541 5542 5544 5545 5546 5548 5549 5551 5552 5554 5554 5555 5555 5555 5555 5555 5554 5554 5556 5558 5559 5557 5559 5562 5562 5565 5567 5569 5569 5568 5568 5568 5568 5568 5567 5567 5565
5538 5540 5541 5542 5543 5544 5545 5547 5548 5550 5551 5552 5552 5553 5553 5554 5554 5553 5554 5554 5556 5557 5557 5557 5559 5559 5563 5566 5566 5567 5567 5568 5568 5568 5568 5568 5566 5564
5537 5538 5540 5541 5542 5543 5544 5545 5547 5548 5549 5550 5551 5552 5553 5553 5554 5553 5553 5554 5555 5556 5557 5555 5557 5557 5559 5562 5564 5566 5566 5567 5567 5568 5568 5568 5566 5563
5536 5538 5539 5540 5542 5543 5544 5546 5547 5547 5548 5549 5550 5551 5552 5553 5554 5554 5554 5554 5554 5555 5556 5554 5555 5556 5557 5559 5562 5564 5565 5566 5566 5567 5567 5567 5566 5565
5537 5538 5539 5540 5542 5544 5545 5546 5547 5547 5548 5549 5550 5551 5552 5552 5553 5554 5554 5554 5555 5555 5556 5555 5555 5555 5555 5557 5560 5562 5563 5566 5566 5565 5566 5565 5565 5564
5538 5539 5540 5542 5543 5544 5545 5547 5548 5548 5548 5550 5551 5551 5552 5552 5553 5553 5554 5555 5555 5557 5557 5557 5556 5555 5556 5557 5558 5560 5562 5563 5565 5565 5565 5565 5565 5564
5539 5540 5542 5543 5545 5547 5547 5548 5549 5549 5549 5550 5551 5551 5552 5553 5554 5554 5553 5554 5554 5556 5558 5558 5557 5556 5556 5557 5559 5561 5562 5563 5564 5564 5563 5564 5566 5566
5540 5541 5543 5545 5546 5547 5548 5550 5551 5552 5552 5552 5552 5552 5553 5554 5555 5555 5554 5554 5555 5556 5557 5558 5557 5557 5557 5559 5559 5561 5563 5564 5564 5563 5561 5562 5566 5568
5542 5544 5546 5547 5548 5549 5550 5551 5553 5554 5554 5554 5554 5554 5554 5555 5555 5556 5556 5555 5556 5557 5557 5557 5556 5556 5558 5562 5567 5562 5561 5563 5563 5563 5562 5561 5563 5567
5546 5548 5549 5550 5551 5552 5553 5554 5555 5556 5556 5556 5556 5556 5556 5556 5556 5556 5557 5556 5557 5557 5558 5558 5557 5556 5557 5560 5563 5564 5562 5560 5561 5561 5562 5561 5561 5562
5553 5552 5553 5554 5555 5555 5556 5556 5557 5557 5558 5557 5558 5558 5558 5557 5557 5557 5558 5557 5555 5556 5558 5560 5561 5558 5556 5554 5556 5561 5563 5561 5559 5558 5558 5558 5559 5560
5557 5557 5558 5558 5558 5559 5559 5559 5558 5559 5559 5559 5559 5559 5558 5557 5557 5558 5558 5557 5557 5557 5558 5559 5559 5555 5553 5554 5557 5560 5561 5561 5559 5557 5555 5553 5553 5556
5562 5562 5562 5561 5561 5561 5561 5561 5560 5560 5560 5560 5560 5559 5558 5558 5557 5557 5556 5556 5556 5556 5556 5556 5556 5554 5553 5553 5553 5555 5556 5556 5556 5556 5556 5555 5551 5550